[[{"header":{"parameterUnit":"m.s-1","parameterCategory":1,"la1":30.2991,"la2":30.254,"lo1":-89.0895,"lo2":-89.0444,"dy":0.0017,"dx":0.0017,"nx":28,"ny":28,"refTime":"2024-05-11T03:00:00:Z","depth":0,"parameterNumber":2,"parameterNumberName":"U-component_of_WINDS"},"data":[0,0,0,0,0,0,0,0,0,0,0,0,0,0,0,0,0,0,0,0,0,0,0,0,0,0,0,0,0,0,0,0,0,0,0,0,0,0,0,0,0,0,0,0,0,0,0,0,0,0,0,0,0,0,0,0,0,0,-4.0779,-4.078,0,-4.0811,-4.0812,-4.0812,-4.0683,-4.0679,-4.0675,-4.0672,-4.0705,-4.0709,-4.0714,0,0,0,0,0,0,0,0,0,0,0,0,0,-4.0605,-4.0609,-4.0779,-4.078,-4.078,-4.0811,-4.0812,-4.0812,-4.0684,-4.0679,-4.0674,-4.067,-4.0704,-4.0709,-4.0714,0,0,0,0,0,0,0,0,0,0,0,0,0,-4.0663,-4.061,-4.0779,-4.072,-4.0714,-4.0811,-4.0812,-4.0812,-4.0685,-4.0679,-4.0673,-4.0668,-4.0702,-4.0708,-4.0715,-4.0871,0,0,-4.0735,-4.0738,0,0,0,0,0,0,0,0,-4.066,-4.067,-4.0728,-4.0724,-4.0718,-4.0737,-4.0762,-4.0832,-4.0686,-4.0696,-4.0672,-4.0665,-4.072,-4.0725,-4.0744,-4.0872,-4.0874,-4.0736,-4.074,-4.0743,-4.0745,0,0,0,0,0,0,0,-4.0656,-4.0668,-4.0792,-4.0729,-4.0723,-4.0691,-4.0693,-4.0775,-4.074,-4.0695,-4.0685,-4.0691,-4.0717,-4.0738,-4.0744,-4.0874,-4.0736,-4.0742,-4.0746,-4.0748,-4.1131,-4.1137,0,0,0,0,0,0,-4.066,-4.0665,-4.0791,-4.0793,-4.0675,-4.0699,-4.0701,-4.0737,-4.0739,-4.0733,-4.0696,-4.0685,-4.0729,-4.0736,-4.0744,-4.0927,-4.0743,-4.0749,-4.0753,-4.1125,-4.1132,-4.1139,0,0,0,0,0,0,-4.0657,-4.0673,-4.0789,-4.0727,-4.0739,-4.0708,-4.0749,-4.0741,-4.0761,-4.0739,-4.0733,-4.0724,-4.0725,-4.0735,-4.084,-4.0926,-4.0752,-4.0758,-4.1118,-4.1127,-4.1136,-4.1294,0,0,0,0,0,0,-4.0653,-4.0672,-4.0732,-4.0729,-4.0743,-4.0886,-4.0755,-4.0745,-4.0773,-4.0759,-4.0764,-4.0759,-4.0721,-4.0831,-4.0847,-4.0932,-4.0763,-4.111,-4.1122,-4.1133,-4.1281,-4.1307,-4.133,0,0,0,0,0,-4.0647,-4.0775,-4.0735,-4.0751,-4.0816,-4.0891,-4.0899,-4.0852,-4.0781,-4.084,-4.0825,-4.0759,-4.0914,-4.0843,-4.086,-4.0948,-4.1104,-4.1119,-4.1132,-4.127,-4.1302,-4.1329,0,0,0,0,0,0,-4.0789,-4.0774,-4.073,-4.0861,-4.0878,-4.0869,-4.0942,-4.0888,-4.0926,-4.0912,-4.0852,-4.0854,-4.097,-4.0969,-4.089,-4.1099,-4.0997,-4.1015,-4.1095,-4.1126,-4.115,-4.1149,-4.0769,0,0,0,0,0,-4.0836,-4.0898,-4.0881,-4.0998,-4.1009,-4.0975,-4.1005,-4.0968,-4.0983,-4.099,-4.0983,-4.1001,-4.1053,-4.1089,-4.1136,-4.1279,-4.1278,-4.1348,-4.1373,-4.1393,-4.141,-4.1485,-4.1516,-4.1185,-4.1184,-4.1184,0,0,-4.0933,-4.0932,-4.0975,-4.1027,-4.1036,-4.1101,-4.0982,-4.1056,-4.1104,-4.1001,-4.11,-4.1096,-4.1111,-4.1236,-4.1291,-4.1239,-4.1501,-4.1411,-4.1427,-4.1433,-4.1502,-4.1534,-4.1562,-4.1194,-4.1192,-4.1191,0,0,-4.1144,-4.115,-4.1248,-4.1259,-4.1274,-4.125,-4.1273,-4.1272,-4.1265,-4.1363,-4.1288,-4.1343,-4.1435,-4.1449,-4.1468,-4.1682,-4.1623,-4.1699,-4.1828,-4.1902,-4.1928,-4.1951,-4.2028,-4.2056,-4.1715,-4.1716,-4.1716,0,-4.1264,-4.1359,-4.1305,-4.1385,-4.141,-4.1319,-4.1418,-4.1431,-4.1461,-4.148,-4.1421,-4.1533,-4.1538,-4.1664,-4.1716,-4.1735,-4.176,-4.1699,-4.1929,-4.1951,-4.1972,-4.2045,-4.2074,-4.1725,-4.1724,-4.1723,-4.1722,0,-4.1505,-4.1572,-4.165,-4.1681,-4.1714,-4.1803,-4.1762,-4.1802,-4.1761,-4.1743,-4.1843,-4.1844,-4.189,-4.1917,-4.1878,-4.2038,-4.2005,-4.1939,-4.1835,-4.2014,-4.2081,-4.2108,-4.1738,-4.1735,-4.1732,-4.173,0,0,-4.1809,-4.1808,-4.1837,-4.185,-4.1858,-4.1909,-4.1993,-4.2037,-4.2073,-4.2095,-4.2165,-4.2243,-4.2181,-4.2203,-4.2164,-4.2229,-4.2399,-4.2154,-4.2154,-4.2201,-4.2576,-4.2627,-4.266,-4.2359,-4.2364,-4.2368,-4.2575,0,-4.2017,-4.2161,-4.2114,-4.226,-4.2321,-4.2235,-4.2308,-4.2321,-4.2306,-4.2355,-4.2338,-4.2395,-4.2309,-4.2321,-4.2381,-4.2366,-4.2474,-4.235,-4.2423,-4.2426,-4.2424,-4.2695,-4.275,-4.2945,-4.2601,-4.2605,-4.2608,0,-4.2279,-4.2312,-4.2464,-4.2461,-4.2485,-4.2552,-4.2588,-4.2636,-4.2649,-4.2633,-4.2657,-4.2604,-4.2686,-4.2581,-4.2692,-4.2609,-4.2636,-4.2633,-4.2639,-4.2645,-4.253,-4.271,-4.3006,-4.3036,-4.2649,-4.2646,-4.2643,0,-4.2487,-4.2569,-4.267,-4.2683,-4.2683,-4.2732,-4.2734,-4.274,-4.2769,-4.28,-4.2819,-4.2859,-4.2882,-4.2914,-4.2873,-4.28,-4.2991,-4.2883,-4.2981,-4.2982,-4.3026,-4.3024,-4.3332,-4.3042,-4.3041,-4.3041,-4.304,0,-4.2724,-4.2821,-4.2763,-4.2826,-4.2932,-4.2876,-4.2982,-4.2974,-4.298,-4.3039,-4.2966,-4.3023,-4.2965,-4.3017,-4.2985,-4.3083,-4.3093,-4.3083,-4.3073,-4.309,-4.3092,-4.3108,-4.3094,-4.3048,-4.3047,-4.3045,-4.3044,0,-4.2975,-4.294,-4.3045,-4.3035,-4.3035,-4.3113,-4.3105,-4.3162,-4.314,-4.3216,-4.3231,-4.3198,-4.3254,-4.3216,-4.3273,-4.3252,-4.338,-4.3351,-4.3376,-4.3369,-4.3469,-4.3461,-4.38,-4.3841,-4.3523,-4.3526,-4.3529,0,-4.313,-4.3202,-4.32,-4.3234,-4.3241,-4.3297,-4.3326,-4.3273,-4.3306,-4.3325,-4.3381,-4.3431,-4.3468,-4.3563,-4.3544,-4.3587,-4.3559,-4.3675,-4.3565,-4.358,-4.3562,-4.3559,-4.3566,-4.3698,-4.3702,-4.3705,-4.3707,0,-4.3409,-4.3388,-4.3432,-4.3471,-4.3508,-4.3536,-4.3558,-4.359,-4.3536,-4.3577,-4.3634,-4.3663,-4.3721,-4.3772,-4.3807,-4.3808,-4.375,-4.3741,-4.3766,-4.3785,-4.3797,-4.3793,-4.3438,-4.3734,-4.3732,-4.373,-4.3728,-4.3727,-4.3617,-4.3677,-4.3684,-4.3736,-4.3747,-4.3769,-4.3822,-4.3807,-4.3853,-4.3896,-4.3861,-4.393,-4.3939,-4.398,-4.3988,-4.404,-4.3993,-4.403,-4.4039,-4.4049,-4.4063,-4.3787,-4.4046,-4.4046,-4.4045,-4.4044,-4.4044,0,-4.3893,-4.3893,-4.3941,-4.3973,-4.4014,-4.3954,-4.3974,-4.4013,-4.4073,-4.4087,-4.4125,-4.419,-4.4238,-4.4222,-4.4265,-4.431,-4.4284,-4.4323,-4.432,-4.4322,-4.4103,-4.4077,-4.4344,-4.4344,-4.4344,-4.4344,-4.4344,-4.4343,-4.4041,-4.4139,-4.4119,-4.4221,-4.422,-4.4286,-4.4303,-4.4323,-4.4333,-4.4409,-4.4448,-4.4437,-4.4439,-4.4481,-4.4523,-4.4516,-4.4536,-4.4586,-4.457,-4.4367,-4.4337,-4.4309,-4.4285,-4.459,-4.459,-4.4784,-4.4786,-4.4788]},{"header":{"parameterUnit":"m.s-1","parameterCategory":1,"la1":30.2991,"la2":30.254,"lo1":-89.0895,"lo2":-89.0444,"dy":0.0017,"dx":0.0017,"nx":28,"ny":28,"refTime":"2024-05-11T03:00:00:Z","depth":0,"parameterNumber":3,"parameterNumberName":"V-component_of_WINDS"},"data":[0,0,0,0,0,0,0,0,0,0,0,0,0,0,0,0,0,0,0,0,0,0,0,0,0,0,0,0,0,0,0,0,0,0,0,0,0,0,0,0,0,0,0,0,0,0,0,0,0,0,0,0,0,0,0,0,0,0,-5.3775,-5.3776,0,-5.3839,-5.384,-5.3841,-5.3767,-5.3764,-5.3761,-5.3759,-5.382,-5.3824,-5.3828,0,0,0,0,0,0,0,0,0,0,0,0,0,-5.3582,-5.3586,-5.3775,-5.3776,-5.3776,-5.3839,-5.384,-5.3841,-5.3767,-5.3764,-5.3761,-5.3757,-5.3819,-5.3824,-5.3829,0,0,0,0,0,0,0,0,0,0,0,0,0,-5.3658,-5.3588,-5.3775,-5.3747,-5.3746,-5.3839,-5.384,-5.3841,-5.3768,-5.3764,-5.376,-5.3756,-5.3817,-5.3823,-5.3829,-5.3951,0,0,-5.3849,-5.3851,0,0,0,0,0,0,0,0,-5.3654,-5.3665,-5.3751,-5.3749,-5.3748,-5.3791,-5.3794,-5.3878,-5.3769,-5.3759,-5.3759,-5.3754,-5.3813,-5.382,-5.3841,-5.3954,-5.3957,-5.3849,-5.3853,-5.3856,-5.3858,0,0,0,0,0,0,0,-5.3649,-5.3662,-5.38,-5.3752,-5.375,-5.373,-5.3736,-5.381,-5.3809,-5.376,-5.3755,-5.3764,-5.3812,-5.3835,-5.3842,-5.3958,-5.3849,-5.3855,-5.3859,-5.3861,-5.4172,-5.4176,0,0,0,0,0,0,-5.3647,-5.3658,-5.3798,-5.3802,-5.369,-5.3737,-5.3744,-5.3781,-5.3808,-5.3808,-5.3767,-5.376,-5.3826,-5.3834,-5.3844,-5.3987,-5.3856,-5.3862,-5.3865,-5.4167,-5.4173,-5.4177,0,0,0,0,0,0,-5.3644,-5.3661,-5.3795,-5.3729,-5.3744,-5.3745,-5.3787,-5.3784,-5.3808,-5.3813,-5.3812,-5.3791,-5.3823,-5.3835,-5.3925,-5.3988,-5.3865,-5.387,-5.4162,-5.4169,-5.4175,-5.4275,0,0,0,0,0,0,-5.3638,-5.366,-5.3708,-5.3731,-5.3748,-5.3878,-5.3791,-5.3789,-5.3819,-5.381,-5.3836,-5.3836,-5.3821,-5.3916,-5.3931,-5.3994,-5.3875,-5.4156,-5.4165,-5.4173,-5.4266,-5.4284,-5.4299,0,0,0,0,0,-5.3632,-5.3733,-5.371,-5.3728,-5.3808,-5.3882,-5.3891,-5.3874,-5.3825,-5.3872,-5.3875,-5.3835,-5.3979,-5.3926,-5.3942,-5.4008,-5.4152,-5.4163,-5.4172,-5.4258,-5.428,-5.4299,0,0,0,0,0,0,-5.3716,-5.3735,-5.3711,-5.3822,-5.3851,-5.3869,-5.3928,-5.3898,-5.394,-5.393,-5.3904,-5.3911,-5.4006,-5.4016,-5.3957,-5.4126,-5.4057,-5.4071,-5.4117,-5.4138,-5.4154,-5.415,-5.388,0,0,0,0,0,-5.3748,-5.3807,-5.382,-5.3917,-5.3933,-5.3928,-5.3959,-5.3943,-5.3971,-5.3982,-5.3992,-5.402,-5.407,-5.4105,-5.4152,-5.4267,-5.427,-5.432,-5.4337,-5.4351,-5.4363,-5.4422,-5.4444,-5.421,-5.421,-5.421,0,0,-5.3813,-5.3831,-5.387,-5.3934,-5.3955,-5.4015,-5.3939,-5.4006,-5.405,-5.3992,-5.4078,-5.4086,-5.4115,-5.4217,-5.4263,-5.4228,-5.4428,-5.4363,-5.4374,-5.4379,-5.4435,-5.4457,-5.4476,-5.4217,-5.4216,-5.4215,0,0,-5.3963,-5.3984,-5.4066,-5.4088,-5.412,-5.4116,-5.4136,-5.4159,-5.4162,-5.4248,-5.4205,-5.4256,-5.4345,-5.4367,-5.4389,-5.4547,-5.4511,-5.4562,-5.465,-5.4709,-5.4727,-5.4743,-5.4798,-5.4818,-5.4575,-5.4575,-5.4575,0,-5.4041,-5.4132,-5.4112,-5.4182,-5.4211,-5.4162,-5.4244,-5.4266,-5.4311,-5.4331,-5.4292,-5.4401,-5.4417,-5.4524,-5.4562,-5.4582,-5.4602,-5.4559,-5.4726,-5.4742,-5.4757,-5.4809,-5.483,-5.4581,-5.458,-5.4579,-5.4579,0,-5.4224,-5.4288,-5.435,-5.4396,-5.4432,-5.4507,-5.4497,-5.4535,-5.4515,-5.4515,-5.4601,-5.4619,-5.4668,-5.4692,-5.4673,-5.4795,-5.4773,-5.4731,-5.466,-5.4786,-5.4834,-5.4854,-5.4589,-5.4587,-5.4585,-5.4584,0,0,-5.443,-5.4464,-5.4487,-5.4506,-5.4537,-5.4585,-5.4657,-5.4707,-5.4739,-5.4772,-5.483,-5.4906,-5.4867,-5.4893,-5.4875,-5.4927,-5.5048,-5.4878,-5.4878,-5.4908,-5.5182,-5.5213,-5.5236,-5.5025,-5.5029,-5.5032,-5.5179,0,-5.458,-5.4707,-5.4691,-5.4812,-5.4869,-5.4823,-5.4886,-5.4911,-5.4912,-5.4959,-5.4959,-5.5013,-5.4958,-5.4973,-5.5021,-5.5023,-5.5103,-5.5012,-5.5077,-5.508,-5.5071,-5.5262,-5.5295,-5.5433,-5.5198,-5.5201,-5.5203,0,-5.4772,-5.4812,-5.494,-5.4961,-5.4984,-5.5041,-5.5084,-5.5131,-5.5157,-5.5153,-5.5182,-5.5155,-5.5225,-5.5154,-5.5249,-5.5188,-5.5214,-5.5219,-5.5223,-5.5228,-5.5149,-5.5271,-5.5477,-5.5498,-5.5233,-5.5231,-5.5228,0,-5.4908,-5.4994,-5.5081,-5.5099,-5.5126,-5.5167,-5.518,-5.5202,-5.5232,-5.5269,-5.5288,-5.5332,-5.5356,-5.539,-5.5375,-5.5325,-5.5473,-5.5401,-5.547,-5.5471,-5.5503,-5.5501,-5.5716,-5.5521,-5.5521,-5.5521,-5.552,0,-5.5077,-5.5156,-5.5142,-5.5196,-5.5282,-5.5262,-5.5347,-5.5354,-5.5374,-5.5426,-5.5389,-5.5438,-5.5416,-5.5463,-5.5451,-5.5531,-5.5542,-5.554,-5.5536,-5.5544,-5.5544,-5.5559,-5.5549,-5.5526,-5.5525,-5.5524,-5.5523,0,-5.5243,-5.5237,-5.5329,-5.5347,-5.5353,-5.5416,-5.543,-5.5479,-5.5477,-5.5543,-5.5558,-5.5554,-5.5607,-5.5596,-5.5655,-5.5647,-5.5746,-5.5731,-5.5738,-5.5734,-5.5804,-5.5797,-5.6036,-5.6065,-5.5852,-5.5854,-5.5856,0,-5.5351,-5.5411,-5.5435,-5.5469,-5.5485,-5.5538,-5.5569,-5.555,-5.5583,-5.5617,-5.5661,-5.5712,-5.5751,-5.5839,-5.584,-5.5884,-5.5868,-5.5949,-5.5874,-5.5879,-5.5868,-5.5864,-5.5869,-5.5963,-5.5966,-5.5968,-5.5969,0,-5.5543,-5.5536,-5.5583,-5.5629,-5.5666,-5.5701,-5.5732,-5.576,-5.5743,-5.5782,-5.5837,-5.5868,-5.5928,-5.5978,-5.6018,-5.6029,-5.5996,-5.5993,-5.6011,-5.6019,-5.602,-5.6019,-5.5777,-5.5987,-5.5985,-5.5984,-5.5983,-5.5982,-5.5682,-5.5733,-5.5758,-5.581,-5.5831,-5.5861,-5.5907,-5.5911,-5.5957,-5.6005,-5.5991,-5.6053,-5.6075,-5.6126,-5.6142,-5.6189,-5.6159,-5.6185,-5.6192,-5.6199,-5.6207,-5.6013,-5.6196,-5.6196,-5.6195,-5.6195,-5.6195,0,-5.5871,-5.5884,-5.5933,-5.5977,-5.6018,-5.5985,-5.6017,-5.6052,-5.6108,-5.6133,-5.6172,-5.6234,-5.6282,-5.6287,-5.6332,-5.6368,-5.6354,-5.6381,-5.6377,-5.638,-5.6232,-5.6211,-5.6391,-5.6391,-5.6391,-5.6391,-5.6391,-5.6391,-5.5974,-5.6057,-5.6054,-5.6147,-5.6159,-5.6221,-5.6241,-5.6267,-5.6287,-5.6358,-5.6398,-5.6402,-5.6417,-5.6463,-5.6504,-5.6504,-5.6522,-5.6554,-5.6548,-5.641,-5.639,-5.6372,-5.6352,-5.6558,-5.6559,-5.6692,-5.6693,-5.6694]}]]